User: anonymous   Login
Location: Clatteringshaws Loch
(55.0508°N, 4.2860°W)
Time: 14:00:45
(UTC+01:00)
Language:

ALOS - Orbit

View from above orbital plane
View from above orbital plane
View from above satellite
View from above satellite

Ground track
Ground track

The orbit data is extracted from the following two-line orbital elements,

1 28931U 06002A   15240.21370513  .00000265  00000-0  61718-4 0  9995
2 28931 097.9271 286.7142 0000798 130.8052 229.3219 14.61950296511168
Epoch (UTC): 28 August 2015 05:07:44
Eccentricity: 0.0000798
inclination: 97.9271°
perigee height: 686 km
apogee height: 687 km
right ascension of ascending node: 286.7142°
argument of perigee: 130.8052°
revolutions per day: 14.61950296
mean anomaly at epoch: 229.3219°
orbit number at epoch: 51116

The dashed part of the orbit path shows where the satellite is in the earth's shadow,  

DLR